When you browse on this site, cookies collect data to enhance your experience and personalize the content and advertising you see.
Visit our Privacy Policy to learn more. By continuing to use the site, you agree to this use of cookies and data.
  • Em Portugal
  • Lista de países
  • Para 7 dias
  • Temperatura da água
  • Mapa do tempo
  • Widgets de tempo
  • user-avatar
    Iniciar Sessão

    Previsão horária em Kalat

    Hoje, 25 Janeiro, Sábado

    Tempo Temperatura Precipitação Vento Pressão Humidade
    00:00 -17°C° 0.1 mm 2 m/s 465 mmHg 94%
    01:00 -18°C° 0.1 mm 3 m/s 465 mmHg 93%
    02:00 -19°C° 0.1 mm 3 m/s 464 mmHg 91%
    03:00 -21°C° 0 mm 3 m/s 463 mmHg 90%
    04:00 -22°C° 0 mm 3 m/s 462 mmHg 89%
    05:00 -23°C° 0 mm 3 m/s 461 mmHg 88%
    06:00 -21°C° 0 mm 2 m/s 461 mmHg 85%
    07:00 -21°C° 0 mm 2 m/s 461 mmHg 82%
    08:00 -21°C° 0 mm 2 m/s 461 mmHg 79%
    09:00 -19°C° 0 mm 2 m/s 463 mmHg 75%
    10:00 -16°C° 0 mm 2 m/s 465 mmHg 71%
    11:00 -14°C° 0 mm 2 m/s 467 mmHg 67%
    12:00 -13°C° 0 mm 2 m/s 467 mmHg 66%
    13:00 -12°C° 0 mm 2 m/s 467 mmHg 66%
    14:00 -9°C° 0 mm 1 m/s 467 mmHg 65%
    15:00 -11°C° 0 mm 1 m/s 466 mmHg 72%
    16:00 -13°C° 0 mm 1 m/s 465 mmHg 79%
    17:00 -15°C° 0 mm 1 m/s 463 mmHg 86%
    18:00 -16°C° 0 mm 1 m/s 463 mmHg 88%
    19:00 -18°C° 0 mm 1 m/s 462 mmHg 90%
    20:00 -19°C° 0 mm 1 m/s 461 mmHg 93%
    21:00 -20°C° 0 mm 1 m/s 461 mmHg 93%
    22:00 -20°C° 0 mm 1 m/s 461 mmHg 93%
    23:00 -20°C° 0 mm 1 m/s 461 mmHg 93%

    Amanhã, 26 Janeiro, Domingo

    Tempo Temperatura Precipitação Vento Pressão Humidade
    00:00 -21°C° 0 mm 1 m/s 460 mmHg 90%
    01:00 -21°C° 0 mm 1 m/s 460 mmHg 86%
    02:00 -21°C° 0 mm 1 m/s 460 mmHg 82%
    03:00 -22°C° 0 mm 1 m/s 460 mmHg 73%
    04:00 -22°C° 0 mm 1 m/s 459 mmHg 64%
    05:00 -22°C° 0 mm 1 m/s 459 mmHg 55%
    06:00 -25°C° 0 mm 2 m/s 460 mmHg 49%
    07:00 -24°C° 0 mm 2 m/s 460 mmHg 43%
    08:00 -24°C° 0 mm 2 m/s 460 mmHg 37%
    09:00 -20°C° 0 mm 2 m/s 462 mmHg 42%
    10:00 -17°C° 0 mm 2 m/s 464 mmHg 48%
    11:00 -15°C° 0 mm 2 m/s 466 mmHg 54%
    12:00 -14°C° 0 mm 2 m/s 467 mmHg 55%
    13:00 -13°C° 0 mm 2 m/s 467 mmHg 56%
    14:00 -13°C° 0 mm 3 m/s 467 mmHg 57%
    15:00 -15°C° 0 mm 3 m/s 465 mmHg 64%
    16:00 -16°C° 0 mm 2 m/s 464 mmHg 72%
    17:00 -18°C° 0 mm 2 m/s 462 mmHg 80%
    18:00 -19°C° 0 mm 2 m/s 462 mmHg 78%
    19:00 -21°C° 0 mm 2 m/s 461 mmHg 75%
    20:00 -23°C° 0 mm 2 m/s 460 mmHg 73%
    21:00 -25°C° 0 mm 3 m/s 460 mmHg 68%
    22:00 -25°C° 0 mm 3 m/s 459 mmHg 63%
    23:00 -25°C° 0 mm 3 m/s 459 mmHg 59%

    Depois de amanhã, 27 Janeiro, Segunda-feira

    Tempo Temperatura Precipitação Vento Pressão Humidade
    00:00 -25°C° 0 mm 3 m/s 459 mmHg 60%
    01:00 -25°C° 0 mm 2 m/s 459 mmHg 61%
    02:00 -25°C° 0 mm 2 m/s 459 mmHg 62%
    03:00 -24°C° 0 mm 2 m/s 459 mmHg 62%
    04:00 -24°C° 0 mm 2 m/s 459 mmHg 62%
    05:00 -24°C° 0 mm 2 m/s 459 mmHg 61%
    06:00 -21°C° 0 mm 1 m/s 459 mmHg 59%
    07:00 -21°C° 0 mm 1 m/s 459 mmHg 56%
    08:00 -21°C° 0 mm 1 m/s 459 mmHg 54%
    09:00 -19°C° 0 mm 1 m/s 461 mmHg 52%
    10:00 -16°C° 0 mm 1 m/s 463 mmHg 50%
    11:00 -14°C° 0 mm 1 m/s 465 mmHg 48%
    12:00 -13°C° 0 mm 1 m/s 465 mmHg 50%
    13:00 -13°C° 0 mm 1 m/s 465 mmHg 51%
    14:00 -12°C° 0 mm 1 m/s 465 mmHg 52%
    15:00 -13°C° 0 mm 1 m/s 464 mmHg 64%
    16:00 -15°C° 0 mm 1 m/s 463 mmHg 76%
    17:00 -17°C° 0 mm 1 m/s 462 mmHg 87%
    18:00 -18°C° 0 mm 1 m/s 461 mmHg 89%
    19:00 -20°C° 0 mm 1 m/s 460 mmHg 91%
    20:00 -22°C° 0 mm 1 m/s 459 mmHg 93%
    21:00 -22°C° 0 mm 1 m/s 459 mmHg 93%
    22:00 -23°C° 0 mm 1 m/s 459 mmHg 92%
    23:00 -23°C° 0 mm 1 m/s 459 mmHg 92%

    28 Janeiro, Terça-feira

    Tempo Temperatura Precipitação Vento Pressão Humidade
    00:00 -23°C° 0 mm 1 m/s 458 mmHg 91%
    01:00 -24°C° 0 mm 1 m/s 458 mmHg 91%
    02:00 -24°C° 0 mm 1 m/s 458 mmHg 91%
    03:00 -24°C° 0 mm 1 m/s 458 mmHg 90%
    04:00 -24°C° 0 mm 1 m/s 457 mmHg 90%
    05:00 -25°C° 0 mm 1 m/s 457 mmHg 90%
    06:00 -24°C° 0 mm 1 m/s 457 mmHg 89%
    07:00 -24°C° 0 mm 1 m/s 458 mmHg 87%
    08:00 -24°C° 0 mm 1 m/s 458 mmHg 86%
    09:00 -22°C° 0 mm 1 m/s 460 mmHg 81%
    10:00 -19°C° 0 mm 1 m/s 462 mmHg 77%
    11:00 -16°C° 0 mm 1 m/s 464 mmHg 72%
    12:00 -16°C° 0 mm 1 m/s 464 mmHg 72%
    13:00 -15°C° 0 mm 1 m/s 464 mmHg 72%
    14:00 -14°C° 0 mm 1 m/s 464 mmHg 71%
    15:00 -15°C° 0 mm 1 m/s 462 mmHg 77%
    16:00 -17°C° 0 mm 1 m/s 461 mmHg 83%
    17:00 -18°C° 0 mm 1 m/s 460 mmHg 89%
    18:00 -19°C° 0 mm 1 m/s 460 mmHg 84%
    19:00 -20°C° 0 mm 1 m/s 459 mmHg 80%
    20:00 -22°C° 0 mm 1 m/s 459 mmHg 76%
    21:00 -21°C° 0 mm 1 m/s 459 mmHg 73%
    22:00 -21°C° 0 mm 1 m/s 459 mmHg 70%
    23:00 -21°C° 0 mm 1 m/s 459 mmHg 67%

    29 Janeiro, Quarta-feira

    Tempo Temperatura Precipitação Vento Pressão Humidade
    00:00 -21°C° 0 mm 1 m/s 459 mmHg 67%
    01:00 -21°C° 0 mm 1 m/s 459 mmHg 68%
    02:00 -21°C° 0 mm 1 m/s 459 mmHg 68%
    03:00 -21°C° 0 mm 1 m/s 459 mmHg 68%
    04:00 -20°C° 0 mm 1 m/s 460 mmHg 69%
    05:00 -20°C° 0 mm 1 m/s 460 mmHg 70%
    06:00 -20°C° 0 mm 1 m/s 460 mmHg 71%
    07:00 -19°C° 0 mm 1 m/s 461 mmHg 71%
    08:00 -19°C° 0 mm 1 m/s 461 mmHg 72%
    09:00 -17°C° 0 mm 1 m/s 463 mmHg 71%
    10:00 -14°C° 0 mm 1 m/s 465 mmHg 70%
    11:00 -12°C° 0 mm 1 m/s 466 mmHg 69%
    12:00 -11°C° 0 mm 1 m/s 467 mmHg 70%
    13:00 -10°C° 0 mm 1 m/s 467 mmHg 70%
    14:00 -9°C° 0 mm 1 m/s 467 mmHg 71%
    15:00 -10°C° 0.1 mm 1 m/s 467 mmHg 77%
    16:00 -11°C° 0.1 mm 1 m/s 466 mmHg 83%
    17:00 -13°C° 0.1 mm 1 m/s 465 mmHg 89%
    18:00 -14°C° 0.1 mm 1 m/s 465 mmHg 89%
    19:00 -18°C° 0.1 mm 2 m/s 464 mmHg 89%
    20:00 -19°C° 0.1 mm 2 m/s 463 mmHg 90%
    21:00 -20°C° 0 mm 2 m/s 462 mmHg 89%
    22:00 -21°C° 0 mm 2 m/s 462 mmHg 88%
    23:00 -21°C° 0 mm 2 m/s 461 mmHg 87%

    30 Janeiro, Quinta-feira

    Tempo Temperatura Precipitação Vento Pressão Humidade
    00:00 -23°C° 0 mm 2 m/s 461 mmHg 86%
    01:00 -23°C° 0 mm 2 m/s 461 mmHg 85%
    02:00 -23°C° 0 mm 2 m/s 461 mmHg 84%
    03:00 -21°C° 0 mm 1 m/s 460 mmHg 82%
    04:00 -21°C° 0 mm 1 m/s 460 mmHg 80%
    05:00 -21°C° 0 mm 1 m/s 460 mmHg 77%
    06:00 -21°C° 0 mm 1 m/s 460 mmHg 74%
    07:00 -21°C° 0 mm 1 m/s 460 mmHg 71%
    08:00 -21°C° 0 mm 1 m/s 461 mmHg 67%
    09:00 -18°C° 0 mm 1 m/s 463 mmHg 65%
    10:00 -15°C° 0 mm 1 m/s 464 mmHg 62%
    11:00 -13°C° 0 mm 1 m/s 466 mmHg 59%
    12:00 -12°C° 0 mm 1 m/s 466 mmHg 60%
    13:00 -11°C° 0 mm 1 m/s 466 mmHg 61%
    14:00 -10°C° 0 mm 1 m/s 467 mmHg 61%
    15:00 -12°C° 0 mm 1 m/s 465 mmHg 67%
    16:00 -13°C° 0 mm 1 m/s 464 mmHg 72%
    17:00 -15°C° 0 mm 1 m/s 463 mmHg 78%
    18:00 -16°C° 0 mm 1 m/s 462 mmHg 79%
    19:00 -20°C° 0 mm 2 m/s 462 mmHg 79%
    20:00 -21°C° 0 mm 2 m/s 461 mmHg 80%
    21:00 -23°C° 0 mm 2 m/s 461 mmHg 79%
    22:00 -23°C° 0 mm 2 m/s 461 mmHg 78%
    23:00 -24°C° 0 mm 2 m/s 460 mmHg 76%
    Mostrar mais